Lexington Weather

Lexington, Massachusetts, USA

53°F
12/10/2019 5:37pm 
  • Lexington Conditions: Overcast
  • Temperature: 53.4°F / 11.9°CColder 0.6°F than last hour.
  • Dew Point: 52.0°FDecreased 0.5°Fsince last hour.
  • Relative Humidity: 95
  • Wind: Wind from SW SW 8 mph, 10-min avg: 5 mph, gust: 13 mph
  • Barometer: 29.75 inRising 0.05  inHg/hr Rising Slowly
  • Visibility: 10 miles
  • Rain Today: 0.05 in
  •   

Regional Weather Roundup
for Boston / Norton, MA

        
000
ASUS41 KBOX 091900
RWRBOX

REGIONAL WEATHER ROUNDUP
NATIONAL WEATHER SERVICE BOSTON/NORTON MA
200 PM EST MON DEC 09 2019

NOTE:  "FAIR" INDICATES FEW OR NO CLOUDS BELOW 12,000 FEET WITH NO 
SIGNIFICANT WEATHER AND/OR OBSTRUCTIONS TO VISIBILITY.

MAZALL-092000-
EASTERN MASSACHUSETTS
  
CITY           SKY/WX    TMP DP  RH WIND       PRES   REMARKS
BOSTON         LGT RAIN  56  51  84 S28G39    29.98F FOG              
BEVERLY        CLOUDY    51  49  92 S16       29.97F                  
LAWRENCE       CLOUDY    51  49  92 S9G20     29.96F                  
BEDFORD        LGT RAIN  53  49  86 S17G28    29.95F FOG              
BLUE HILL        N/A     51  51 100 S31G45    29.96F                  
NORWOOD        LGT RAIN  57  51  80 S20G28    29.98F                  
MARSHFIELD     NOT AVBL                                               
PLYMOUTH       NOT AVBL                                               
TAUNTON        LGT RAIN  56  53  90 S14G23    30.01F                  
NEW BEDFORD    LGT RAIN  54  32  43 S14G26    30.03F                  
$$

MAZALL-092000-
CAPE COD AND THE ISLANDS
  
CITY           SKY/WX    TMP DP  RH WIND       PRES   REMARKS
FALMOUTH       LGT RAIN  52  52 100 S17G29    30.07F FOG              
HYANNIS        NOT AVBL                                               
CHATHAM        LGT RAIN  51  50  96 S14G23    30.10F FOG              
PROVINCETOWN   LGT RAIN  52  51  97 S20G29    30.06F                  
NANTUCKET      CLOUDY    51  48  89 SE12      30.11F FOG              
MARTHAS VNYRD  LGT RAIN  53  51  93 S15       30.06F FOG              
$$
 
MAZALL-092000-
CENTRAL AND WESTERN MASSACHUSETTS
  
CITY           SKY/WX    TMP DP  RH WIND       PRES   REMARKS
WORCESTER      LGT RAIN  49  48  97 S21G30    29.93F FOG              
FITCHBURG      LGT RAIN  38  36  92 CALM      29.94F VSB 1/4          
ORANGE         FOG       40  38  93 CALM      29.91F VSB 1/4          
SPRINGFIELD    NOT AVBL                                               
WESTFIELD      FOG       38  37  97 N3        29.91F VSB 1/2          
NORTH ADAMS    CLOUDY    42  40  92 SE5       29.87F                  
PITTSFIELD     CLOUDY    47  45  93 S10G18    29.85F FOG              
$$
 
RIZALL-092000-
RHODE ISLAND
  
CITY           SKY/WX    TMP DP  RH WIND       PRES   REMARKS
PROVIDENCE     LGT RAIN  54  53  97 S15       30.00F FOG              
NEWPORT        LGT RAIN  55  52  89 S14G23    30.00F FOG              
BLOCK ISLAND   RAIN      54  52  93 S17G23    30.01F FOG              
SMITHFIELD     LGT RAIN  53  52  96 S10G18    29.98F FOG              
WESTERLY       LGT RAIN  54  50  86 S13       29.99F FOG              
$$
 
CTZALL-092000-
CONNECTICUT
  
CITY           SKY/WX    TMP DP  RH WIND       PRES   REMARKS
BRADLEY INTL   LGT RAIN  40  37  89 CALM      29.91F VSB 1/2          
HARTFORD       LGT RAIN  52  51  97 S12       29.91F FOG              
BRIDGEPORT     LGT RAIN  52  51  97 SW10      29.94F FOG              
DANBURY        CLOUDY    51  50  96 SW13      29.94S                  
GROTON         RAIN      52  52 100 S13       29.98F VSB 1            
NEW HAVEN      CLOUDY    55  53  93 S12       29.94F FOG              
CHESTER        LGT RAIN  55  55 100 S10G20    29.95F                  
MERIDEN        LGT RAIN  53  52  96 S10       29.93F FOG              
WILLIMANTIC    LGT RAIN  54  53  97 S10       29.96F FOG              
OXFORD         LGT RAIN  52  52 100 SW9       29.93F VSB 1/4          
$$

MEZ002-015-021-024-NHZ003-005-008-011-012-014-VTZ005-008-092000-
NORTHERN NEW ENGLAND
  
CITY           SKY/WX    TMP DP  RH WIND       PRES   REMARKS
PORTLAND ME    RAIN      42  38  85 E10       29.99F VSB 1/4          
BANGOR ME      LGT RAIN  40  39  97 SE3       30.08F FOG              
CONCORD NH     LGT RAIN  38  37  97 NW5       29.94F VSB 1/4          
MANCHESTER NH  LGT RAIN  48  46  93 S10       29.92F VSB 1            
NASHUA NH      LGT RAIN  39  39 100 NW6       29.94F VSB 1/4          
PORTSMOUTH NH  NOT AVBL                                               
JAFFREY NH     LGT RAIN  45  44  97 S6        29.90F FOG              
KEENE NH       LGT RAIN  39  38  96 CALM      29.90F VSB 1/4          
BURLINGTON VT  CLOUDY    42  36  79 S12       29.82F                  
MT. WASHINGTON RAIN      32  32 100 S47G58      N/A  VSB 1/16WCI  15  
$$

NYZ052-076-092000-
EASTERN NEW YORK
  
CITY           SKY/WX    TMP DP  RH WIND       PRES   REMARKS
ALBANY         FOG       40  38  93 CALM      29.86F VSB 1/4          
NEW YORK CITY  LGT RAIN  54  50  86 SW12      29.95F                  
$$
 
ANZALL-092000-
MARINE OBSERVATIONS
  
STATION/POSITION TIME  TEMP    WIND        PRES    VSBY  WAVE
                       AIR SEA DIR/SP/G                  HT/PER
                 (UTC) (F)     (DEG/KT/KT) (MB)    (MI)  (FT/S)
BOSTON BUOY      1750   50 47  150/ 17/ 21 1016.3          2/ 4
BUZZARDS BAY     1800   52     180/ 20/ 23 1018.2F
NANTUCKET SOUND  NOT AVBL
MASS BAY-STELLWA 1804   48 46  190/ 16/ 17 1015.1F  1 5/8  3/ 4
ISLE OF SHOALS   1800   47     150/ 23/ 25 1015.6F
S OF BLOCK IS    1830      52                N/A           7/ 7
$$

......................KEY.........................
  SKY/WX - SKY CONDITION/PRESENT WEATHER
  TMP    - TEMPERATURE IN FAHRENHEIT
  DWPT   - DEWPOINT IN FAHRENHEIT
  RH     - RELATIVE HUMIDITY IN PERCENT
  WIND   - DIRECTION AND SPEED IN MPH
  PRES   - MEAN SEA LEVEL PRESSURE IN INCHES OF HG
  WCI    - WIND CHILL INDEX
  VSB    - VISIBILITY IN MILES
  HX     - HEAT INDEX
  TC     - TEMPERATURE IN CELSIUS
  VRB    - VARIABLE WIND DIRECTION
  N/A    - NOT AVAILABLE
  
      

Other recent Regional Weather Roundups

Tue Dec 10, 5:00pm

Tue Dec 10, 4:10pm

Tue Dec 10, 4:01pm

Tue Dec 10, 3:10pm

Tue Dec 10, 3:01pm

Tue Dec 10, 2:10pm

Tue Dec 10, 2:01pm

Tue Dec 10, 1:10pm

Tue Dec 10, 1:00pm

Tue Dec 10, 12:10pm

Tue Dec 10, 12:00pm

Tue Dec 10, 11:10am

Tue Dec 10, 11:00am

Tue Dec 10, 10:10am

Tue Dec 10, 10:00am

Tue Dec 10, 9:10am

Tue Dec 10, 9:01am

Tue Dec 10, 8:10am

Tue Dec 10, 8:00am

Tue Dec 10, 7:10am

Tue Dec 10, 7:00am

Tue Dec 10, 6:10am

Tue Dec 10, 6:00am

Tue Dec 10, 5:10am

Tue Dec 10, 5:00am

Tue Dec 10, 4:10am

Tue Dec 10, 4:00am

Tue Dec 10, 3:10am

Tue Dec 10, 3:00am

Tue Dec 10, 2:10am

Tue Dec 10, 2:01am

Tue Dec 10, 1:10am

Tue Dec 10, 1:00am

Tue Dec 10, 12:10am

Tue Dec 10, 12:01am

Mon Dec 9, 11:10pm

Mon Dec 9, 11:01pm

Mon Dec 9, 10:10pm

Mon Dec 9, 10:00pm

Mon Dec 9, 9:10pm

Mon Dec 9, 9:01pm

Mon Dec 9, 8:10pm

Mon Dec 9, 8:01pm

Mon Dec 9, 7:10pm

Mon Dec 9, 7:00pm

Mon Dec 9, 6:10pm

Mon Dec 9, 6:00pm

Mon Dec 9, 5:10pm

Mon Dec 9, 5:01pm

Mon Dec 9, 4:10pm

Mon Dec 9, 4:01pm

Mon Dec 9, 3:10pm

Mon Dec 9, 3:01pm

Mon Dec 9, 2:10pm

Mon Dec 9, 1:10pm

Mon Dec 9, 1:00pm

Mon Dec 9, 12:10pm

Mon Dec 9, 12:00pm

Mon Dec 9, 11:10am

Mon Dec 9, 11:00am

Mon Dec 9, 10:10am

Mon Dec 9, 10:00am

Mon Dec 9, 9:10am

Mon Dec 9, 9:00am

Mon Dec 9, 8:10am

Mon Dec 9, 8:00am

Mon Dec 9, 7:10am

Mon Dec 9, 7:00am

Mon Dec 9, 6:10am

Mon Dec 9, 6:00am

Mon Dec 9, 5:10am

Mon Dec 9, 5:00am

Mon Dec 9, 4:10am

Mon Dec 9, 4:00am

Mon Dec 9, 3:10am

Mon Dec 9, 3:00am

Mon Dec 9, 2:10am

Mon Dec 9, 2:00am

Mon Dec 9, 1:10am

Mon Dec 9, 1:00am

Mon Dec 9, 12:10am

Mon Dec 9, 12:00am

Sun Dec 8, 11:10pm

Sun Dec 8, 11:00pm

Sun Dec 8, 10:10pm

Sun Dec 8, 10:01pm

Sun Dec 8, 9:10pm

Sun Dec 8, 9:01pm

Sun Dec 8, 8:10pm

Sun Dec 8, 8:00pm

Sun Dec 8, 7:10pm

Sun Dec 8, 7:00pm

Sun Dec 8, 6:10pm

Sun Dec 8, 6:01pm

Sun Dec 8, 5:10pm

Sun Dec 8, 5:00pm

Sun Dec 8, 4:10pm

Sun Dec 8, 4:01pm

Sun Dec 8, 3:10pm

Sun Dec 8, 3:01pm

Sun Dec 8, 2:10pm

Sun Dec 8, 2:01pm

Sun Dec 8, 1:10pm

Sun Dec 8, 1:00pm

Sun Dec 8, 12:10pm

Sun Dec 8, 12:01pm

Sun Dec 8, 11:10am

Sun Dec 8, 11:00am

Sun Dec 8, 10:10am

Sun Dec 8, 10:01am

Sun Dec 8, 9:10am

Sun Dec 8, 9:00am

Sun Dec 8, 8:10am

Sun Dec 8, 8:00am

Sun Dec 8, 7:10am

Sun Dec 8, 7:00am

Sun Dec 8, 6:10am

Sun Dec 8, 6:00am

Sun Dec 8, 5:10am

Sun Dec 8, 5:00am

Sun Dec 8, 4:10am

Sun Dec 8, 4:00am

Sun Dec 8, 3:10am

Sun Dec 8, 3:00am

Sun Dec 8, 2:10am

Sun Dec 8, 2:00am

Sun Dec 8, 1:10am

Sun Dec 8, 1:00am

Sun Dec 8, 12:10am

Sun Dec 8, 12:01am

Sat Dec 7, 11:10pm

Sat Dec 7, 11:00pm

Sat Dec 7, 10:10pm

Sat Dec 7, 10:00pm

Sat Dec 7, 9:10pm

Sat Dec 7, 9:00pm

Sat Dec 7, 8:10pm

Sat Dec 7, 8:00pm

Sat Dec 7, 7:10pm

Sat Dec 7, 7:00pm

Sat Dec 7, 6:10pm

Sat Dec 7, 6:00pm

Meta data:

ID: 0e7a1aad-81fd-453b-a3ca-e59e134ecc79
Link: https://api.weather.gov/products/0e7a1aad-81fd-453b-a3ca-e59e134ecc79